Weather History for Idabel, OK

Change the Weather History Date:

Tuesday, April 30, 2013

  Actual Average (KDEQ) Record (KDEQ)
Temperature  
Mean Temperature 70 °F 65 °F  
Max Temperature 86 °F 77 °F 92 °F (1990)
Min Temperature 53 °F 53 °F 36 °F (1996)
Degree Days  
Heating Degree Days 0 2  
Month to date heating degree days 153  
Since 1 July heating degree days 3021  
Cooling Degree Days 4 3  
Month to date cooling degree days 36  
Year to date cooling degree days 47  
Growing Degree Days 20 (Base 50)    
Moisture  
Dew Point 55 °F    
Average Humidity 60    
Maximum Humidity 94    
Minimum Humidity 33    
Precipitation  
Precipitation 0.00 in 0.19 in 4.55 in (1956)
Month to date precipitation 3.93  
Year to date precipitation 15.57  
Snow  
Snow 0.00 in - - ()
Month to date snowfall  
Since 1 July snowfall  
Snow Depth -    
Sea Level Pressure  
Sea Level Pressure 29.84 in    
Wind  
Wind Speed 7 mph (SE)    
Max Wind Speed 13 mph    
Max Gust Speed 17 mph    
Visibility 10 miles    
Events      
T = Trace of Precipitation, MM = Missing Value Source: NWS Daily Summary

Daily Weather History Graph

Daily Weather History Graph

Search for Another Location

Airport:

Trip Planner

Search our weather history database for the weather conditions in past years. The results will help you decide how hot, cold, wet, or windy it might be!

Date:

Astronomy

Apr. 30, 2013 Rise Set
Actual Time 6:31 AM CDT 8:02 PM CDT
Civil Twilight 6:04 AM CDT 8:29 PM CDT
Nautical Twilight 5:32 AM CDT 9:01 PM CDT
Astronomical Twilight 4:59 AM CDT 9:34 PM CDT
Moon 12:23 AM CDT (4/30) 11:03 AM CDT (4/30)
Length of Visible Light 14h 24m
Length of Day
13h 31m
Waning Gibbous, 70% of the Moon is Illuminated
Apr 30
Waning Gibbous
May 2
Last Quarter
May 9
New
May 17
First Quarter
May 24
Full

Hourly Weather History & Observations

Time (CDT) Temp. Heat Index Dew Point Humidity Pressure Visibility Wind Dir Wind Speed Gust Speed Precip Events Conditions
12:15 AM 64.4 °F - 50.0 °F 59% 29.85 in 10.0 mi South 8.1 mph - N/A   Clear
12:35 AM 64.4 °F - 50.0 °F 59% 29.85 in 10.0 mi South 8.1 mph - N/A   Clear
12:55 AM 64.4 °F - 51.8 °F 64% 29.85 in 10.0 mi South 8.1 mph - N/A   Clear
1:15 AM 64.4 °F - 51.8 °F 64% 29.85 in 10.0 mi SSE 6.9 mph - N/A   Clear
1:35 AM 62.6 °F - 51.8 °F 68% 29.85 in 10.0 mi SSE 5.8 mph - N/A   Clear
1:55 AM 62.6 °F - 51.8 °F 68% 29.85 in 10.0 mi South 4.6 mph - N/A   Clear
2:15 AM 62.6 °F - 51.8 °F 68% 29.85 in 10.0 mi South 4.6 mph - N/A   Clear
2:35 AM 60.8 °F - 51.8 °F 72% 29.85 in 10.0 mi South 3.5 mph - N/A   Clear
2:55 AM 60.8 °F - 51.8 °F 72% 29.84 in 10.0 mi South 3.5 mph - N/A   Clear
3:15 AM 60.8 °F - 51.8 °F 72% 29.84 in 10.0 mi South 3.5 mph - N/A   Clear
3:35 AM 59.0 °F - 51.8 °F 77% 29.84 in 10.0 mi South 6.9 mph - N/A   Clear
3:55 AM 60.8 °F - 53.6 °F 77% 29.84 in 10.0 mi South 5.8 mph - N/A   Clear
4:15 AM 60.8 °F - 53.6 °F 77% 29.84 in 10.0 mi South 5.8 mph - N/A   Clear
4:35 AM 60.8 °F - 53.6 °F 77% 29.84 in 10.0 mi South 4.6 mph - N/A   Clear
4:55 AM 60.8 °F - 53.6 °F 77% 29.84 in 10.0 mi South 5.8 mph - N/A   Clear
5:15 AM 59.0 °F - 53.6 °F 82% 29.84 in 10.0 mi SE 4.6 mph - N/A   Clear
5:35 AM 59.0 °F - 51.8 °F 77% 29.84 in 10.0 mi Calm Calm - N/A   Clear
5:55 AM 55.4 °F - 50.0 °F 82% 29.84 in 10.0 mi Calm Calm - N/A   Clear
6:15 AM 53.6 °F - 50.0 °F 88% 29.85 in 10.0 mi NE 4.6 mph - N/A   Clear
6:35 AM 53.6 °F - 50.0 °F 88% 29.86 in 10.0 mi ENE 3.5 mph - N/A   Clear
6:55 AM 53.6 °F - 51.8 °F 94% 29.87 in 10.0 mi East 4.6 mph - N/A   Clear
7:15 AM 55.4 °F - 53.6 °F 94% 29.87 in 10.0 mi ENE 3.5 mph - N/A   Clear
7:35 AM 55.4 °F - 53.6 °F 94% 29.88 in 10.0 mi ENE 4.6 mph - N/A   Clear
7:55 AM 59.0 °F - 55.4 °F 88% 29.87 in 10.0 mi Calm Calm - N/A   Clear
8:15 AM 60.8 °F - 55.4 °F 82% 29.87 in 10.0 mi ENE 3.5 mph - N/A   Clear
8:35 AM 62.6 °F - 55.4 °F 77% 29.87 in 10.0 mi ENE 4.6 mph - N/A   Clear
8:55 AM 64.4 °F - 57.2 °F 77% 29.87 in 10.0 mi East 3.5 mph - N/A   Clear
9:15 AM 68.0 °F - 59.0 °F 73% 29.88 in 10.0 mi Calm Calm - N/A   Clear
9:35 AM 69.8 °F - 59.0 °F 68% 29.87 in 10.0 mi East 3.5 mph - N/A   Clear
9:55 AM 73.4 °F - 59.0 °F 61% 29.88 in 10.0 mi ESE 4.6 mph - N/A   Clear
10:15 AM 73.4 °F - 59.0 °F 61% 29.87 in 10.0 mi South 3.5 mph - N/A   Clear
10:35 AM 77.0 °F - 59.0 °F 54% 29.87 in 10.0 mi SE 4.6 mph - N/A   Clear
10:55 AM 77.0 °F - 60.8 °F 57% 29.87 in 10.0 mi SSE 5.8 mph - N/A   Clear
11:15 AM 77.0 °F - 59.0 °F 54% 29.87 in 10.0 mi SSE 8.1 mph - N/A   Clear
11:35 AM 78.8 °F - 59.0 °F 51% 29.87 in 10.0 mi South 6.9 mph 16.1 mph N/A   Clear
11:55 AM 78.8 °F - 59.0 °F 51% 29.87 in 10.0 mi SSE 9.2 mph - N/A   Clear
12:15 PM 78.8 °F - 59.0 °F 51% 29.87 in 10.0 mi SE 8.1 mph 17.3 mph N/A   Scattered Clouds
12:35 PM 78.8 °F - 59.0 °F 51% 29.87 in 10.0 mi SSE 10.4 mph 16.1 mph N/A   Scattered Clouds
12:55 PM 78.8 °F - 57.2 °F 47% 29.85 in 10.0 mi SE 9.2 mph - N/A   Scattered Clouds
1:15 PM 80.6 °F 80.5 °F 55.4 °F 42% 29.85 in 10.0 mi SSE 9.2 mph 17.3 mph N/A   Scattered Clouds
1:35 PM 80.6 °F 80.8 °F 57.2 °F 45% 29.84 in 10.0 mi SSE 10.4 mph - N/A   Clear
1:55 PM 80.6 °F 80.5 °F 55.4 °F 42% 29.84 in 10.0 mi SE 10.4 mph - N/A   Scattered Clouds
2:15 PM 80.6 °F 80.5 °F 55.4 °F 42% 29.83 in 10.0 mi SSE 11.5 mph - N/A   Scattered Clouds
2:35 PM 82.4 °F 81.7 °F 55.4 °F 39% 29.82 in 10.0 mi SSE 11.5 mph 17.3 mph N/A   Clear
2:55 PM 82.4 °F 81.7 °F 55.4 °F 39% 29.82 in 10.0 mi SSE 8.1 mph - N/A   Clear
3:15 PM 82.4 °F 82.0 °F 57.2 °F 42% 29.81 in 10.0 mi ESE 11.5 mph 17.3 mph N/A   Clear
3:35 PM 82.4 °F 81.7 °F 55.4 °F 39% 29.81 in 10.0 mi SE 9.2 mph - N/A   Clear
3:55 PM 82.4 °F 81.7 °F 55.4 °F 39% 29.80 in 10.0 mi SSE 9.2 mph 16.1 mph N/A   Clear
4:15 PM 82.4 °F 81.7 °F 55.4 °F 39% 29.79 in 10.0 mi SSE 6.9 mph 10.4 mph N/A   Scattered Clouds
4:35 PM 84.2 °F 83.0 °F 55.4 °F 37% 29.79 in 10.0 mi SSE 11.5 mph - N/A   Clear
4:55 PM 86.0 °F 84.2 °F 53.6 °F 33% 29.79 in 10.0 mi SSE 11.5 mph 17.3 mph N/A   Clear
5:15 PM 82.4 °F 81.4 °F 53.6 °F 37% 29.80 in 10.0 mi SE 12.7 mph 16.1 mph N/A   Clear
5:35 PM 82.4 °F 81.4 °F 53.6 °F 37% 29.79 in 10.0 mi SE 8.1 mph - N/A   Clear
5:55 PM 82.4 °F 81.4 °F 53.6 °F 37% 29.79 in 10.0 mi ESE 11.5 mph - N/A   Clear
6:15 PM 82.4 °F 81.4 °F 53.6 °F 37% 29.79 in 10.0 mi SE 10.4 mph 17.3 mph N/A   Clear
6:35 PM 82.4 °F 81.7 °F 55.4 °F 39% 29.79 in 10.0 mi SE 10.4 mph - N/A   Clear
6:55 PM 80.6 °F 80.5 °F 55.4 °F 42% 29.79 in 10.0 mi ESE 8.1 mph - N/A   Clear
7:15 PM 80.6 °F 80.5 °F 55.4 °F 42% 29.80 in 10.0 mi ESE 8.1 mph - N/A   Clear
7:35 PM 78.8 °F - 55.4 °F 44% 29.80 in 10.0 mi ESE 8.1 mph - N/A   Clear
7:55 PM 77.0 °F - 57.2 °F 50% 29.80 in 10.0 mi ESE 6.9 mph - N/A   Clear
8:15 PM 73.4 °F - 57.2 °F 57% 29.81 in 10.0 mi ESE 8.1 mph - N/A   Clear
8:35 PM 73.4 °F - 57.2 °F 57% 29.81 in 10.0 mi ESE 6.9 mph - N/A   Clear
8:55 PM 73.4 °F - 57.2 °F 57% 29.82 in 10.0 mi SE 9.2 mph - N/A   Clear
9:15 PM 71.6 °F - 57.2 °F 60% 29.82 in 10.0 mi ESE 9.2 mph - N/A   Clear
9:35 PM 71.6 °F - 57.2 °F 60% 29.82 in 10.0 mi SE 10.4 mph - N/A   Clear
9:55 PM 71.6 °F - 57.2 °F 60% 29.84 in 10.0 mi SE 9.2 mph - N/A   Clear
10:35 PM 71.6 °F - 59.0 °F 64% 29.85 in 10.0 mi SSE 9.2 mph - N/A   Clear
10:55 PM 71.6 °F - 59.0 °F 64% 29.85 in 10.0 mi SSE 10.4 mph - N/A   Clear
11:15 PM 69.8 °F - 59.0 °F 68% 29.85 in 10.0 mi SSE 8.1 mph - N/A   Clear
11:35 PM 69.8 °F - 60.8 °F 73% 29.85 in 10.0 mi SSE 8.1 mph - N/A   Clear
11:55 PM 69.8 °F - 60.8 °F 73% 29.85 in 10.0 mi SSE 6.9 mph - N/A   Clear